Погода в Талшике

Казахстан     53°38′17″N   71°52′14″E
темп.,
°C
ветер,
м/с
пор.,
м/с
влажн.,
%
обл.,
%
осадки,
мм/ч
давл.,
гПа
погр.,
м
1 марта, пн
пн100:00−5в5896100 2.5 1006322
03:00−6всв5896100 0.4 1005197
06:00−7св4696100 1.8 1005184
09:00−9ссв4696100 0.9 1006174
12:00−9с4494100 1.5 1007252
15:00−10сз469297 0.1 1009411
18:00−12сз459497 0.2 1012131
21:00−14зсз349586 0.1 101479
2 марта, вт
вт200:00−17з349676 0.1 101629
03:00−17з349786 0.0 101645
06:00−18з339783 0.1 101742
09:00−17з229799 0.2 101667
12:00−14зюз239097 0.3 1016265
15:00−12зюз238799 0.0 1014387
18:00−14зсз019399 0.1 101420
21:00−14ююз119687 0.1 101420
3 марта, ср
ср300:00−14юз339682 0.1 101433
03:00−15зюз499188 0.0 1014189
06:00−18ююз459184 0.0 101574
09:00−19ююз488982 0.0 1014179
12:00−13ююз599291 0.1 1014469
15:00−8юз61091100 0.3 1013660
18:00−7юз71294100 0.6 1012736
21:00−6юз71394100 0.6 1011773
4 марта, чт
чт400:00−3ююз61488100 0.9 1010743
03:00−2юз71490100 0.1 1008765
06:00−2ююз61486100 0.3 1008672
09:00−1ююз71487100 0.0 1006785
12:00+1ююз81494100 0.2 10051025
15:00+1ююз81486100 0.0 10031066
18:00+1юз71483100 0.1 1003773
21:00−1юз7148498 0.1 1004537
5 марта, пт
пт500:00−2зюз6119594 0.3 1006423
03:00−7зсз599096 0.1 1007226
06:00−14з589248 0.1 1010134
09:00−13юз510870 0.0 1012176
12:00−6юз8167620 0.0 1011577
15:00−3юз11177797 0.0 10091038
18:00−4зюз10188199 0.0 10101007
21:00−4зюз101979100 0.0 1011922